Location: Colonia Mina de C?rbuni
(46.1667°N, 22.7167°E)
Time: 05:59:37
(UTC+00:00)

Tiros 1 - Pass Details

Date: 25 April 2024
Orbit: 624 x 657 km, 48.4° (Epoch: 25 May)

Event Time Altitude Azimuth Distance (km) Brightness Sun altitude
Exits shadow 02:11:15 - 286° (WNW) 2,422 9.7 -12.1°
Reaches altitude 10° 02:12:21 10° 283° (WNW) 2,004 9.3 -12.0°
Maximum altitude 02:16:45 47° 211° (SSW) 832 7.3 -11.4°
Drops below altitude 10° 02:21:08 10° 137° (SE) 1,988 9.8 -10.7°
Sets 02:23:30 0° 132° (SE) 2,891 10.7 -10.4°
